User: anonymous   Login
Location: Unspecified
(42.3650°N, 71.1030°W)
Time: 15:34:24
(UTC+00:00)
Language:

NOAA 18 - Orbit

View from above orbital plane
View from above orbital plane
View from above satellite
View from above satellite

Ground track
Ground track

The orbit data is extracted from the following two-line orbital elements,

1 28654U 05018A   24194.48321794  .00000305  00000-0  18609-3 0  9992
2 28654  98.8740 271.2383 0013924 356.2366   3.8699 14.13250695986834
Epoch (UTC): 12 July 2024 11:35:50
Eccentricity: 0.0013924
inclination: 98.8740°
perigee height: 838 km
apogee height: 858 km
right ascension of ascending node: 271.2383°
argument of perigee: 356.2366°
revolutions per day: 14.13250695
mean anomaly at epoch: 3.8699°
orbit number at epoch: 98683

The dashed part of the orbit path shows where the satellite is in the earth's shadow,  

DLR